Lapse_Rate
6.7 6.7 6.8 6.9 7.0 7.1 7.2 7.1 7.2 7.3 7.3 7.3 7.3 7.4 7.4 7.2 7.4 7.5 7.5 7.6 7.7 7.7 7.8 7.8 7.9 7.8 7.7 7.5 7.0 6.9 7.1 7.2 7.2 7.2 7.0 6.8 6.7 6.7 6.7 6.5 6.6 6.7 6.6 6.4 6.7 6.9 7.1
7.0 7.1 7.2 7.2 7.1 7.1 7.1 7.1 7.2 7.2 7.2 7.3 7.3 7.4 7.4 7.2 7.2 7.4 7.4 7.5 7.6 7.6 7.6 7.6 7.7 7.6 7.5 7.0 6.6 6.9 7.1 6.9 6.7 6.5 6.2 6.2 6.2 6.2 6.4 6.6 6.5 6.8 6.8 6.6 6.6 7.2 7.1
6.8 6.9 6.9 7.1 7.1 7.1 7.1 7.0 7.1 7.1 7.2 7.3 7.4 7.4 7.5 7.5 7.4 7.5 7.5 7.5 7.5 7.5 7.5 7.4 7.4 7.3 7.2 6.3 6.2 6.2 6.3 6.1 6.2 6.2 6.3 6.1 6.0 5.9 6.2 6.3 6.5 6.5 6.5 6.7 6.9 7.1 7.0
6.9 7.0 7.0 7.0 6.9 6.9 6.9 7.0 7.1 7.2 7.2 7.3 7.4 7.5 7.6 7.5 7.4 7.3 7.4 7.4 7.3 7.2 7.2 7.2 7.0 6.9 6.4 5.8 6.0 6.1 6.1 6.0 5.8 5.9 6.2 6.3 6.1 6.2 6.3 6.2 6.0 6.0 6.0 6.0 6.1 6.7 7.1
6.6 6.7 6.7 6.7 6.8 6.8 6.9 7.0 7.1 7.2 7.2 7.3 7.3 7.3 7.3 7.5 7.3 7.2 7.2 7.3 7.2 7.1 6.9 6.7 6.5 6.4 5.7 5.9 5.9 6.3 6.4 6.5 6.8 6.8 6.8 6.6 6.3 6.3 5.9 5.6 5.5 5.5 5.7 5.7 5.6 6.0 6.5
6.3 6.5 6.6 6.6 6.7 6.8 6.9 7.0 7.1 7.1 7.2 7.3 7.1 7.0 7.1 7.2 7.3 7.2 7.0 7.0 6.9 6.7 6.5 6.4 6.0 6.1 5.9 6.1 5.8 6.2 6.5 6.4 6.5 6.5 6.7 6.6 6.4 6.1 5.8 5.8 5.3 5.8 5.9 6.1 6.0 6.1 6.3
6.3 6.5 6.6 6.7 6.7 6.8 6.8 6.9 6.9 7.0 7.1 7.1 6.9 6.7 6.9 6.9 7.2 7.1 6.9 6.8 6.3 6.1 6.0 5.9 5.2 4.8 5.4 5.5 5.8 6.1 6.3 6.1 6.3 6.3 6.3 5.9 6.1 6.0 5.8 5.5 5.3 5.3 5.3 5.3 5.4 5.7 5.7
6.4 6.4 6.5 6.6 6.7 6.7 6.6 6.7 6.7 6.7 6.8 6.9 6.8 6.7 6.8 6.8 6.8 6.8 6.7 6.6 6.6 6.5 5.9 5.4 5.0 5.4 5.5 5.8 5.9 6.2 6.4 6.4 6.1 5.8 5.8 6.5 6.2 5.9 5.7 5.6 5.4 5.4 5.2 5.2 5.2 5.2 5.8
6.1 6.3 6.4 6.5 6.5 6.5 6.5 6.6 6.7 6.7 6.6 6.7 6.8 6.7 6.6 6.6 6.6 6.5 6.6 6.5 6.3 6.2 5.7 5.6 5.4 6.0 6.0 5.7 5.4 5.8 5.7 5.5 5.6 5.5 5.6 5.8 5.7 5.5 5.0 5.4 5.4 5.6 5.3 5.8 5.3 5.3 5.5
5.9 6.0 6.1 6.2 6.3 6.4 6.4 6.4 6.5 6.4 6.3 6.5 6.5 6.5 6.6 6.7 6.7 6.8 6.5 6.5 6.3 6.2 5.0 5.3 5.8 5.3 5.3 5.3 5.2 4.8 5.4 5.2 5.0 5.2 5.4 5.6 5.2 5.6 5.8 5.6 5.3 5.3 6.4 5.7 5.4 5.5 5.5
5.7 5.9 6.0 6.1 6.1 6.1 6.1 6.1 6.0 6.1 6.3 6.3 6.4 6.2 6.3 6.6 6.5 6.4 6.5 6.3 6.2 5.9 4.3 4.8 4.9 4.9 5.2 5.1 5.0 5.1 5.4 5.7 5.6 5.5 5.3 5.8 5.2 5.1 5.7 5.6 6.0 6.3 7.0 6.3 5.6 5.6 6.0
5.6 5.8 5.9 6.0 5.9 5.7 5.6 5.7 5.8 5.9 6.0 6.0 6.2 6.4 6.5 6.3 6.4 6.4 6.3 6.3 6.0 5.7 4.0 5.2 5.0 5.3 5.2 5.4 5.3 5.0 5.1 5.6 5.4 5.5 5.9 6.3 5.4 5.7 5.6 5.9 6.3 6.4 6.9 7.1 6.9 7.1 6.7
5.4 5.5 5.7 5.7 5.7 5.5 5.5 5.7 5.8 5.8 5.9 6.0 6.2 6.5 6.5 6.5 6.5 6.3 6.3 6.1 6.0 4.9 4.4 4.6 4.3 4.3 4.9 5.0 5.2 4.9 4.8 4.9 4.3 4.2 4.0 5.6 6.6 6.2 5.8 6.0 7.0 6.7 6.7 7.0 6.9 6.9 6.4
5.2 5.3 5.4 5.5 5.4 5.5 5.5 5.7 5.9 5.9 5.9 6.1 6.3 6.3 6.1 6.1 5.8 6.2 6.5 6.2 5.3 3.5 3.4 3.8 4.0 4.0 4.6 4.6 4.8 4.8 4.8 4.6 4.5 4.3 4.2 3.9 5.1 5.6 5.4 5.1 5.2 6.4 5.7 7.0 7.1 7.5 7.6
5.1 5.1 5.3 5.3 5.4 5.5 5.6 5.8 5.9 6.1 6.1 6.1 6.1 6.2 6.2 6.2 6.3 6.5 6.0 5.8 3.8 3.4 3.3 3.4 4.0 3.9 3.9 4.4 4.7 4.6 4.7 4.7 4.6 4.7 4.0 3.9 4.6 6.3 5.4 5.4 5.2 5.3 5.9 6.2 6.8 8.1 8.5
5.0 5.0 5.2 5.4 5.5 5.4 5.7 5.9 6.0 6.4 6.5 6.4 6.2 6.3 6.1 6.2 6.2 5.4 6.0 4.9 3.4 3.4 3.5 3.6 3.4 3.5 3.7 3.9 4.4 4.8 4.8 4.8 4.7 4.9 4.7 4.5 4.1 5.5 5.6 5.2 5.6 5.3 5.1 6.4 6.6 7.6 7.7
4.9 4.9 5.0 5.2 5.4 5.5 5.6 5.7 5.9 6.1 6.4 6.4 6.2 6.2 5.9 5.7 5.9 6.0 5.3 3.4 3.1 3.5 3.6 3.6 3.4 3.6 3.7 3.7 4.1 4.6 5.1 5.1 5.1 5.1 5.0 4.6 4.5 5.3 5.2 4.7 4.8 5.0 4.7 4.8 5.2 6.3 6.8
4.8 4.8 5.1 5.3 5.3 5.4 5.8 5.9 6.0 6.1 6.1 6.1 6.0 6.1 5.6 5.4 5.4 5.1 4.0 3.8 3.5 3.4 3.7 3.7 3.7 3.6 3.6 3.9 3.9 4.3 4.8 5.1 5.1 5.2 5.0 4.7 4.5 4.6 5.3 5.5 5.3 5.0 4.5 4.4 4.7 5.7 5.8
4.8 4.7 5.0 5.3 5.4 5.6 5.7 5.9 6.2 6.3 6.4 6.2 5.9 5.6 5.4 5.1 5.2 4.3 3.9 3.6 3.8 4.0 4.0 3.8 3.5 3.6 3.7 4.1 4.0 4.5 4.5 5.5 5.6 5.3 5.1 4.8 4.7 4.3 5.0 5.8 5.1 4.5 5.2 5.0 4.5 5.0 5.7
4.9 4.9 5.1 5.3 5.5 5.5 5.5 5.7 5.8 5.9 6.0 6.0 5.9 5.2 4.9 4.8 4.1 4.1 4.1 4.0 4.1 4.0 3.9 3.9 4.0 3.8 3.9 4.2 4.0 4.2 4.1 4.7 5.7 5.9 5.8 5.0 5.0 5.0 4.8 4.8 4.8 4.5 5.1 4.9 5.0 4.9 5.1
5.0 5.0 5.1 5.3 5.6 5.7 5.6 5.6 5.7 5.9 5.9 5.9 5.6 4.8 4.6 4.6 4.5 4.2 3.8 3.8 4.0 3.8 4.1 4.0 3.8 3.8 3.6 3.4 3.6 4.2 4.6 5.4 6.1 6.2 5.6 5.3 5.2 5.7 5.7 5.8 5.6 5.3 5.4 5.5 5.5 4.9 5.0
5.2 5.1 5.1 5.3 5.5 5.7 5.7 5.6 5.4 5.7 5.7 5.4 5.6 5.0 4.5 4.2 4.1 4.1 4.1 4.1 3.7 4.4 4.1 3.9 3.7 4.0 3.9 3.7 3.7 3.8 4.3 5.5 5.6 5.9 5.7 5.8 5.7 5.9 5.7 6.3 6.0 6.1 6.0 5.8 5.4 5.3 4.9
5.1 5.1 5.3 5.3 5.3 5.5 5.6 5.6 5.5 5.5 5.7 5.7 5.2 4.8 4.5 4.1 4.1 4.0 3.9 3.8 3.8 3.6 4.4 4.0 4.0 4.0 4.0 3.9 3.9 4.3 4.9 5.8 5.6 5.6 6.1 6.0 5.8 5.8 5.9 6.5 6.5 6.5 6.0 5.5 5.0 4.7 4.4
5.1 5.2 5.2 5.1 5.1 5.3 5.4 5.4 5.3 5.3 5.2 5.2 5.1 4.8 4.4 4.1 4.0 4.0 3.9 3.9 3.9 4.3 4.4 4.4 4.4 4.2 4.1 4.0 4.0 4.3 4.9 6.1 5.9 6.0 6.1 6.2 6.5 6.7 6.7 6.9 4.6 6.3 6.3 6.0 5.7 5.1 4.9
5.0 5.2 5.2 5.1 5.2 5.2 5.3 5.3 5.3 5.0 4.9 4.8 4.8 4.7 4.2 3.9 3.7 3.8 3.8 3.9 4.1 4.4 4.4 4.1 3.8 3.7 3.7 3.8 3.8 3.9 4.6 5.6 6.2 6.6 7.1 7.3 7.4 7.1 7.8 7.7 8.1 7.3 6.9 6.1 6.0 5.1 4.7
5.0 5.1 5.3 5.2 5.1 5.0 4.9 5.2 4.9 5.0 4.7 4.6 4.6 4.5 4.4 4.0 3.6 3.5 3.8 4.0 3.9 4.1 4.1 4.0 3.8 3.7 3.7 3.9 3.8 4.2 4.9 5.1 5.6 5.7 7.6 8.0 7.8 7.9 8.0 8.4 7.7 6.5 7.0 7.4 7.1 5.7 5.3
4.8 4.8 4.9 4.9 4.8 4.9 4.9 4.9 4.9 4.7 4.8 4.6 4.4 4.3 4.4 4.2 3.7 3.8 3.9 4.1 3.9 3.8 4.0 3.9 3.7 3.9 3.8 3.8 3.8 4.2 5.0 5.3 5.9 6.0 5.6 6.7 7.9 7.7 7.6 8.0 7.5 7.0 7.1 7.5 6.7 6.0 5.6
4.9 4.6 4.8 4.8 4.8 4.6 4.6 4.8 4.8 4.7 4.7 4.5 4.4 4.2 4.2 4.1 3.8 3.8 4.0 4.0 4.1 4.0 4.1 3.9 3.9 3.7 3.6 3.7 4.0 4.5 5.1 5.6 6.3 6.8 6.7 6.8 7.1 7.5 7.3 7.8 7.3 7.3 7.1 7.1 6.7 6.3 6.2
4.7 4.7 4.8 4.9 4.8 4.7 4.8 4.8 4.6 4.4 4.5 4.4 4.2 4.2 4.4 4.3 3.9 4.1 4.1 4.0 4.2 4.1 4.0 3.8 3.7 3.6 3.6 3.7 4.2 4.6 5.3 5.8 6.5 6.9 7.5 7.7 7.8 7.3 7.7 7.8 7.8 7.1 7.0 6.9 6.6 6.5 6.5
Wind_Speed
25 25 26 26 27 28 30 30 31 31 31 30 29 29 29 28 26 25 24 24 20 16 11 9 6 8 1 7 5 12 24 18 11 8 6 3 2 1 3 3 5 7 4 8 8 9 7
25 26 27 28 30 31 31 31 32 32 31 30 30 29 29 28 27 27 25 25 21 12 6 6 5 5 4 20 4 12 20 13 15 6 7 1 4 5 5 5 5 4 7 10 8 14 7
27 28 29 30 30 30 30 31 32 32 32 32 31 30 30 30 29 28 26 25 19 10 4 3 5 2 21 7 1 8 17 8 7 3 4 5 5 5 4 4 8 5 12 17 13 4 8
26 27 28 28 29 30 31 31 33 33 33 33 32 31 31 32 31 30 28 25 11 8 7 4 4 2 5 3 5 15 22 23 17 6 4 13 8 7 6 5 5 5 4 6 6 5 6
25 27 27 28 30 31 31 32 33 35 35 35 33 31 30 31 30 31 28 16 9 10 6 2 4 5 5 13 8 14 18 19 13 6 8 10 3 6 2 3 5 1 14 9 5 4 5
26 27 28 29 30 31 32 34 35 36 36 35 33 31 29 27 28 30 29 5 8 5 3 1 9 5 11 17 11 13 20 18 6 11 8 8 4 2 4 4 14 5 8 6 6 3 5
26 28 29 30 31 32 34 35 36 36 35 35 33 32 29 26 24 23 13 4 6 7 11 5 3 4 7 16 4 12 20 10 7 6 7 6 5 5 4 7 15 14 18 23 12 4 4
26 28 29 31 32 33 34 35 36 35 36 36 34 32 29 24 18 14 7 6 3 2 3 4 1 6 10 12 9 19 23 12 7 7 14 6 4 6 16 15 16 15 17 24 23 8 11
25 27 29 31 32 34 34 35 35 35 36 36 35 32 31 27 4 6 4 6 7 4 3 6 5 7 13 9 8 15 22 9 5 9 16 4 9 12 17 17 14 16 17 23 21 5 10
26 27 29 31 32 33 34 35 36 37 37 37 35 32 30 25 6 3 3 5 6 3 4 10 9 8 13 13 8 9 15 6 7 7 9 5 6 20 17 14 11 14 14 20 17 10 13
25 27 28 30 32 34 34 35 36 38 38 37 35 30 25 13 1 3 5 14 3 3 5 15 7 5 11 14 9 18 12 5 7 15 9 11 17 15 11 6 17 13 16 18 17 13 11
25 27 28 30 32 34 35 35 36 36 37 37 33 27 20 5 3 3 15 2 4 6 3 6 6 13 7 13 9 8 8 10 1 7 12 17 11 4 3 20 18 21 15 13 13 10 11
24 26 27 30 32 34 35 36 36 37 37 38 32 22 10 3 6 19 5 3 5 7 5 9 8 9 5 14 7 16 9 15 15 15 27 12 9 3 13 24 22 13 9 3 5 6 13
24 26 27 30 32 34 35 36 38 38 38 37 28 13 11 4 18 5 3 6 11 3 2 6 7 7 7 14 5 14 5 6 8 15 11 10 10 7 20 10 10 20 7 4 9 9 9
24 25 27 29 32 34 36 37 39 40 40 32 13 5 5 17 23 2 6 7 4 3 6 6 9 4 4 6 3 9 7 5 6 14 8 6 7 22 12 8 10 11 2 10 6 11 7
23 24 26 29 31 34 36 38 40 42 42 25 2 3 9 33 24 6 6 6 3 3 5 4 6 5 6 8 8 10 5 1 6 9 7 5 13 9 12 6 4 8 16 1 5 5 9
21 23 25 27 30 32 35 37 40 42 44 17 4 4 8 31 7 7 4 3 4 6 7 5 5 5 5 9 6 5 3 7 5 10 12 7 4 12 13 4 12 10 10 8 6 4 4
20 22 24 26 29 32 35 37 39 40 38 9 3 4 9 9 5 3 3 4 5 7 8 6 3 5 6 10 5 5 5 3 6 13 9 4 4 12 24 15 4 8 6 9 5 7 5
19 20 22 24 27 30 34 37 39 41 29 2 3 1 5 6 4 4 3 5 3 7 6 7 3 3 6 5 7 6 4 10 7 14 6 5 3 9 10 2 3 7 14 17 13 7 3
18 19 21 23 25 27 31 34 37 39 29 4 3 3 4 5 2 3 3 4 6 6 2 6 4 3 12 11 7 9 14 7 19 19 25 8 4 6 8 12 12 14 21 18 11 4 9
17 18 19 21 22 24 28 32 36 39 28 3 4 1 1 4 5 4 3 5 7 9 5 5 3 11 14 7 12 3 23 20 14 17 5 3 5 8 12 16 16 14 14 17 11 15 8
16 16 17 18 20 21 24 27 32 36 19 5 3 3 3 1 2 4 6 4 7 10 4 5 9 14 10 5 10 23 23 21 10 6 11 3 5 7 8 12 6 14 10 13 14 15 14
15 16 17 16 18 19 20 22 26 30 18 4 2 1 2 4 4 3 2 4 9 9 5 4 12 11 10 9 15 19 19 17 14 13 10 4 6 5 4 9 13 1 10 12 12 18 14
14 15 15 15 16 16 16 16 18 20 16 3 0 1 3 2 2 2 6 4 7 10 8 10 6 5 6 15 14 10 10 10 6 15 7 13 15 4 5 7 5 6 16 11 11 20 18
12 13 13 14 13 13 13 13 13 14 11 3 1 3 2 2 1 4 6 6 7 8 4 7 6 8 7 8 5 7 5 6 8 5 16 14 9 6 3 3 6 15 18 16 12 12 16
11 11 12 12 12 11 11 11 11 12 10 5 2 1 1 1 3 2 6 3 3 4 4 3 5 6 5 3 3 2 4 9 6 13 15 18 11 5 5 3 3 13 20 25 7 10 16
11 11 11 11 11 10 9 10 9 10 10 4 0 3 2 1 3 1 2 4 3 3 3 3 9 5 4 4 3 3 3 6 6 10 17 14 10 8 8 4 6 13 20 12 10 8 15
11 11 10 10 10 9 9 8 7 7 9 3 2 1 2 1 4 3 2 4 3 1 1 5 4 4 3 5 3 3 2 3 3 9 11 7 6 6 5 4 5 18 11 10 4 9 11
11 10 9 10 9 9 8 7 5 4 6 5 1 3 2 2 4 2 4 3 6 7 3 2 4 2 2 3 2 1 3 3 6 5 5 5 4 5 3 4 9 10 9 10 8 4 6
Wind_Direction
26 24 21 17 14 12 11 7 5 3 2 359 354 352 350 348 344 341 331 331 333 336 331 313 333 337 64 58 34 343 344 345 341 354 4 2 331 223 238 258 297 239 247 251 243 263 232
26 22 19 17 14 11 9 6 4 2 360 357 354 351 347 345 343 340 332 337 341 349 337 321 0 333 71 60 339 356 351 337 355 348 334 312 247 236 253 243 220 267 274 274 263 257 253
23 21 18 16 13 9 7 5 3 0 359 357 354 349 346 344 343 337 334 340 344 13 65 32 24 43 56 53 21 19 360 324 306 270 272 255 234 190 201 288 242 253 293 296 265 242 227
20 20 17 14 11 9 7 5 2 0 358 357 354 349 345 343 342 336 336 339 6 57 91 77 25 16 93 98 80 15 358 344 340 296 225 259 246 227 179 230 331 281 277 292 339 226 234
21 19 16 14 11 9 7 4 2 360 358 356 352 348 346 343 341 333 339 350 49 74 93 80 14 65 8 339 12 5 0 339 313 292 290 273 213 207 129 101 335 211 265 267 315 235 194
20 17 15 13 11 8 6 4 1 358 356 354 350 347 345 344 341 338 339 342 24 38 346 302 26 52 10 340 342 2 352 345 321 327 351 10 353 7 29 131 241 178 236 232 182 268 219
19 15 14 12 10 7 6 4 360 355 354 351 348 345 344 345 346 349 349 19 17 2 35 70 3 93 321 329 68 360 351 352 351 35 22 316 12 277 279 276 283 284 272 271 255 234 321
17 14 13 11 8 6 5 3 358 352 352 350 347 343 340 347 349 11 24 66 102 208 342 345 10 29 350 333 9 12 4 19 12 6 352 3 269 330 328 312 285 275 274 269 278 249 261
16 13 12 9 7 5 3 1 358 353 351 349 346 343 342 345 42 43 69 70 312 148 85 358 14 19 13 348 27 9 12 346 359 349 344 302 271 316 318 310 310 275 260 265 266 305 269
15 12 10 7 5 3 2 359 357 354 351 349 347 345 348 344 48 308 68 335 330 145 81 349 349 2 355 342 26 8 17 353 357 322 340 306 318 318 313 313 345 299 264 265 269 255 251
14 11 8 5 4 1 360 359 357 354 350 349 345 342 349 28 242 41 322 326 142 59 53 324 348 313 337 24 283 356 5 337 6 337 16 308 306 328 340 3 335 271 297 271 262 250 261
12 10 8 5 3 0 359 357 356 353 350 347 342 338 346 23 35 286 330 344 50 43 25 336 347 341 12 4 331 314 23 9 323 313 349 313 284 24 336 326 297 293 280 250 251 240 247
10 8 7 4 2 0 359 357 355 353 349 346 342 335 357 12 317 319 336 45 41 79 342 335 332 338 23 352 339 360 5 24 33 359 344 334 332 37 356 340 326 333 341 227 210 222 231
9 6 5 4 2 360 358 357 356 353 349 346 339 333 354 130 337 324 58 62 65 299 5 295 319 324 14 2 340 343 16 16 31 19 318 342 327 10 337 330 286 293 231 253 212 210 223
9 6 5 3 1 359 357 357 356 352 349 346 343 339 13 339 348 37 71 53 167 337 307 316 320 7 343 359 297 351 358 16 33 20 13 318 265 316 317 357 341 332 298 309 285 284 204
8 7 5 3 1 359 357 357 356 354 349 351 57 24 12 342 343 48 69 97 84 2 322 341 0 30 355 331 353 344 343 151 345 15 8 276 301 298 342 358 353 336 324 28 202 265 232
9 6 5 4 2 359 357 357 357 357 349 351 48 52 322 341 16 44 85 90 69 2 17 349 5 325 4 333 312 308 283 305 26 352 338 290 244 292 309 36 12 342 359 360 292 294 256
8 6 5 4 2 360 356 357 358 358 353 32 61 48 327 347 52 28 40 17 28 349 7 4 50 16 12 321 300 286 312 257 13 2 324 281 279 302 295 286 216 343 339 356 332 324 301
4 4 5 5 4 1 357 356 358 357 7 26 64 2 325 32 70 3 344 18 53 17 21 7 334 1 13 329 319 322 305 330 325 346 319 296 314 313 328 21 214 343 333 334 312 265 359
2 3 5 4 4 5 360 356 357 358 2 77 79 30 342 34 47 67 13 4 1 355 304 345 287 2 347 316 281 287 314 314 310 303 299 320 230 207 259 268 291 311 318 333 318 293 323
0 1 3 3 6 8 4 359 359 1 1 76 32 42 174 352 356 21 35 354 357 8 355 333 359 354 334 314 314 339 315 306 308 301 1 248 256 247 260 268 280 286 309 324 344 0 12
355 357 358 2 7 12 9 5 4 2 8 69 85 39 12 4 327 20 9 11 359 342 309 318 345 327 315 294 339 312 306 306 295 314 343 264 273 300 283 283 301 310 354 33 35 12 17
348 351 354 1 4 12 14 11 10 11 23 73 19 50 69 333 353 22 44 336 331 338 309 332 318 318 308 332 302 287 282 274 262 282 300 312 317 302 267 288 309 92 355 45 37 39 16
343 347 349 356 2 10 14 18 16 17 32 103 304 73 64 329 22 348 332 324 320 318 290 301 319 299 336 310 303 286 280 296 78 57 53 343 347 300 283 321 18 112 37 17 0 30 27
336 340 344 349 357 5 12 18 20 20 28 71 29 80 50 297 324 309 340 312 312 297 285 296 347 307 309 310 296 336 329 360 334 12 24 358 334 304 288 325 271 24 348 339 335 43 23
326 330 334 343 349 357 7 12 16 16 28 58 53 99 98 324 263 316 304 329 310 340 315 273 341 312 341 287 11 19 359 4 337 333 349 351 341 292 302 255 45 358 328 327 130 50 10
318 323 328 335 340 347 356 0 8 16 22 46 276 114 105 266 273 59 277 324 350 320 256 313 328 335 17 355 38 6 340 333 333 335 337 341 345 347 348 312 104 350 339 343 42 334 335
308 314 320 324 327 335 339 346 353 18 20 16 298 180 125 244 275 228 253 304 324 287 65 291 11 348 3 28 35 306 358 324 338 322 334 323 328 8 351 350 356 336 348 20 329 317 325
297 301 305 310 312 316 327 322 332 24 26 29 37 8 10 200 242 280 249 226 183 211 147 317 197 278 218 40 11 19 296 317 334 313 354 347 336 307 313 308 330 327 332 341 338 312 318